Regional Weather Roundup
Issued by NWS

Home | Current Version | Previous Version | Text Only | Print | Product List | Glossary On
Versions: 1 2 3 4 5 6 7 8 9 10 11 12 13 14 15 16 17 18 19 20 21 22 23 24 25 26 27 28 29 30 31 32 33 34 35 36 37 38 39 40 41 42 43 44 45 46 47 48 49 50
000
ASUS43 KFSD 161310
RWRSD

WEATHER ROUNDUP FOR SOUTH DAKOTA
NATIONAL WEATHER SERVICE SIOUX FALLS SD
700 AM CST TUE JAN 16 2018

NOTE: "FAIR" INDICATES FEW OR NO CLOUDS BELOW 12,000 FEET WITH NO
SIGNIFICANT WEATHER AND/OR OBSTRUCTIONS TO VISIBILITY.


SDZ001>005-009-010-012>017-161400-
NORTHWEST AND NORTH CENTRAL SOUTH DAKOTA

CITY           SKY/WX    TMP DP  RH WIND       PRES   REMARKS
BUFFALO          N/A    -10 -16  74 S7        30.42F WCI -25
FAITH            N/A    -12 -17  78 S12       30.59F WCI -32
MOBRIDGE       PTCLDY   -17 -23  73 N5        30.69F WCI -30
$$

SDZ012>016-024>037-041>051-057-063-072>074-161400-
SOUTHWEST AND SOUTH CENTRAL SOUTH DAKOTA

CITY           SKY/WX    TMP DP  RH WIND       PRES   REMARKS
RAPID CTY ARPT CLEAR    -11 -16  78 SE5       30.56S WCI -23
PIERRE         PTCLDY   -11 -15  82 W6        30.75F WCI -25
CUSTER         CLEAR      0 -22  34 NW6       30.35F WCI -12
ELLSWORTH AFB  PTCLDY    -6 -12  76 SW7       30.53F WCI -20
PHILIP         CLEAR    -15 -19  82 CALM      30.71S
PINE RIDGE     CLEAR    -19 -24  77 CALM      30.58F
SPEARFISH        N/A      0  -9  65 S6        30.46S WCI -12
WINNER         FAIR      -7 -14  71 SW6       30.73S WCI -20
$$

SDZ004>011-016>023-039-040-161400-
NORTHEAST SOUTH DAKOTA

CITY           SKY/WX    TMP DP  RH WIND       PRES   REMARKS
ABERDEEN       PTCLDY   -17 -22  78 W6        30.78F WCI -32
WATERTOWN      CLOUDY   -12 -16  82 NW7       30.68S WCI -27
BROOKINGS      CLOUDY    -9 -13  83 MISG      30.70S
SISSETON         N/A    -10 -17  71 NW10      30.76S WCI -29
$$

SDZ017-020-022-023-036>040-048>070-161400-
SOUTHEAST SOUTH DAKOTA

CITY           SKY/WX    TMP DP  RH WIND       PRES   REMARKS
SIOUX FALLS    CLOUDY    -6 -10  83 NW8       30.72S WCI -21
HURON          CLEAR    -11 -17  75 NW9       30.79F WCI -29
CHAMBERLAIN    CLEAR     -8 -13  78 CALM      30.76F
MITCHELL       MOCLDY    -8 -14  74 NW9       30.80S WCI -25
YANKTON        CLOUDY    -6 -13  71 NW13      30.79R WCI -25
$$

ABBREVIATIONS USED IN REMARKS
   TC - TEMPERATURE IN CELSIUS
  WCI - WIND CHILL INDEX
   HX - HEAT INDEX
  VSB - VISIBILITY





USA.gov is the U.S. government's official web portal to all federal, state and local government web resources and services.